Wind_Speed
19 21 24 26 26 26 28 32 34 35 36 37 34 30 28 24 21 17 18 18 17 18 16 16 13 12 13 10 15 15 17 18 18 15 13 11 10 10 9 9 9 9 10 12 13 14 14 12 13
18 17 21 23 26 28 31 30 29 31 32 32 36 35 34 31 33 28 24 23 20 19 17 16 15 18 16 17 16 19 21 18 10 9 7 4 4 10 13 15 14 14 12 10 10 13 15 15 14
15 19 20 21 22 25 28 29 30 31 30 28 28 29 30 31 34 34 33 31 26 20 18 18 18 18 16 17 20 21 11 4 5 3 8 9 8 8 11 14 15 13 11 10 9 10 13 15 16
11 14 18 18 23 24 27 28 28 28 27 28 27 26 27 30 32 32 34 31 28 27 23 22 21 19 16 13 16 4 3 2 5 6 6 5 5 5 7 8 8 9 8 9 8 10 15 17 20
14 12 15 19 21 23 26 29 26 24 24 22 24 26 28 26 26 28 31 32 30 27 21 17 14 12 11 6 1 2 2 5 5 5 5 3 2 3 5 5 4 3 3 7 10 11 12 16 18
18 16 12 15 19 21 23 27 28 25 27 26 25 27 27 27 27 27 25 27 29 26 19 13 6 5 6 4 6 6 7 6 6 5 6 6 7 8 10 10 9 8 8 13 15 15 16 17 21
19 19 15 14 16 21 20 22 25 25 26 30 30 25 27 29 29 28 27 22 24 24 20 14 5 7 8 4 6 8 8 8 8 8 10 11 12 12 14 16 15 16 18 17 20 18 22 27 32
23 21 19 18 16 18 20 16 20 24 21 23 25 29 29 28 22 24 29 28 23 22 20 17 11 4 3 5 8 10 11 11 13 12 13 15 16 18 20 20 21 25 27 25 25 30 31 36 37
23 18 23 21 18 18 25 20 18 20 18 20 23 23 25 28 24 26 29 29 30 23 22 20 14 14 11 10 12 13 14 14 15 17 19 19 21 22 24 25 25 25 30 31 36 38 40 42 39
19 21 22 23 26 27 31 26 19 24 24 25 26 25 24 25 28 26 26 25 25 27 24 23 20 17 16 17 16 18 20 20 20 20 21 23 25 27 29 31 32 34 37 38 39 44 47 44 44
19 23 22 24 27 32 32 29 26 27 29 30 30 30 29 27 31 32 27 25 24 27 23 22 25 25 24 24 24 24 25 26 26 26 27 27 29 31 34 36 38 40 43 45 45 49 49 49 50
31 29 24 24 29 32 34 34 33 35 35 32 34 34 36 33 35 33 29 26 26 25 21 21 22 26 29 30 30 31 31 30 31 31 33 34 35 35 37 40 42 46 49 49 51 52 52 51 50
36 36 35 35 36 38 40 39 40 40 41 38 35 36 37 37 36 31 31 26 29 24 21 21 22 25 29 31 33 35 35 35 36 36 37 39 39 41 43 45 49 50 51 52 51 52 51 51 54
41 40 41 45 43 45 45 43 44 44 44 42 42 41 38 36 34 31 30 29 27 27 21 21 24 27 29 31 35 38 40 40 40 40 42 44 45 47 48 49 50 52 52 54 53 52 55 55 56
47 46 45 49 50 50 51 49 49 46 46 46 44 43 41 37 31 30 31 31 26 27 30 23 26 27 28 31 34 37 36 41 44 44 46 48 49 48 50 50 51 54 55 55 53 57 58 60 62
51 51 52 55 55 54 55 54 52 51 48 46 44 43 38 34 34 32 33 30 29 29 29 30 27 29 30 30 34 35 31 32 36 38 38 40 43 46 48 49 51 52 52 55 60 61 61 64 64
57 57 57 57 58 53 52 52 52 50 51 46 44 41 37 36 35 35 35 34 32 33 32 36 36 34 33 34 36 36 33 33 33 34 36 40 43 45 45 46 46 51 55 58 62 66 67 66 63
59 59 59 55 51 48 50 53 53 50 47 46 46 43 40 40 37 35 35 36 36 34 35 35 34 33 35 36 37 37 34 33 33 35 39 44 46 42 45 46 52 55 59 63 63 65 68 64 66
59 53 52 52 48 46 43 44 46 47 48 48 45 44 44 43 40 36 35 36 35 34 36 36 36 36 37 39 39 38 34 35 36 39 42 44 43 45 48 52 55 59 63 60 65 65 62 65 67
55 49 50 49 45 42 45 47 47 47 47 45 45 43 44 43 40 39 36 37 35 35 38 34 34 38 39 38 37 36 36 37 40 41 42 43 46 50 53 56 59 60 61 63 62 60 63 67 71
57 53 54 55 54 54 52 50 43 46 45 45 44 40 42 40 36 35 34 37 36 37 38 36 35 38 38 38 38 38 39 41 42 45 45 47 49 52 55 57 60 60 61 61 60 64 68 70 72
59 58 56 55 51 50 44 42 41 42 45 44 40 39 38 37 39 38 38 39 37 38 37 32 35 39 39 41 42 41 42 42 44 46 47 50 52 53 57 59 58 61 60 60 62 67 71 73 75
55 55 53 50 46 40 44 43 48 46 43 37 37 36 38 37 38 42 41 42 39 38 35 35 39 41 41 40 41 41 43 46 49 49 51 50 53 55 58 58 62 59 59 60 66 68 71 75 80
54 53 53 49 48 44 48 44 41 37 34 34 34 37 40 41 41 42 43 43 39 38 38 39 41 43 44 43 42 42 43 46 49 51 53 53 56 58 59 59 59 59 60 63 64 68 73 77 80
55 53 50 48 49 46 44 37 34 36 35 37 37 38 38 41 43 42 42 41 42 42 41 41 41 42 43 40 36 40 44 50 51 52 54 55 55 59 56 57 57 59 61 61 65 71 76 81 78
55 55 52 48 48 47 47 43 43 41 40 41 39 38 39 39 41 39 39 41 43 40 41 42 40 40 39 38 42 47 47 49 49 51 51 55 55 56 55 55 57 58 58 62 67 76 80 77 72
54 53 52 49 47 46 45 46 46 43 39 40 40 42 42 40 39 38 38 40 41 43 43 39 38 38 39 40 43 45 46 48 48 50 52 52 53 53 53 54 56 56 61 66 72 76 77 73 74
51 51 48 47 45 45 44 42 41 42 42 43 43 42 40 40 39 37 35 41 41 44 42 38 38 39 41 41 43 44 45 47 48 50 51 51 50 51 52 54 55 60 64 68 74 78 79 77 80
49 46 45 44 40 39 38 38 38 37 37 37 38 38 38 37 36 36 38 40 41 41 38 37 37 40 40 39 41 44 44 48 49 51 50 48 49 50 52 55 59 63 67 72 78 82 83 83 86
48 45 44 43 39 37 36 36 32 30 31 32 33 35 35 34 35 38 42 41 39 38 36 35 38 38 38 39 39 41 44 48 50 49 46 46 48 51 53 58 60 65 71 76 81 85 87 90 92
Wind_Direction
22 26 26 23 20 21 30 30 32 34 26 25 31 31 32 26 11 357 350 346 342 331 318 317 319 314 311 301 309 316 315 312 313 308 305 314 327 332 353 11 14 17 19 17 19 16 7 348 333
16 12 24 22 20 22 24 27 28 26 25 19 15 21 23 27 25 18 6 347 341 338 319 308 305 304 304 304 306 310 307 305 305 310 327 352 47 73 75 69 66 68 64 44 39 32 30 26 28
15 11 17 20 23 19 23 23 22 24 21 13 12 11 16 18 19 22 14 7 358 343 327 318 313 302 298 307 309 313 308 330 329 26 112 108 83 84 74 80 82 74 69 60 40 20 13 9 1
359 2 1 16 24 23 19 19 25 13 17 18 11 10 7 10 12 13 15 15 9 357 336 323 314 301 296 310 320 342 36 6 111 106 116 112 86 75 60 61 62 54 48 29 16 357 353 347 347
342 337 343 6 23 26 20 12 15 20 14 13 10 7 5 359 2 3 4 7 10 6 1 348 335 318 308 318 134 104 139 147 162 151 149 167 236 293 333 343 347 1 14 4 347 334 329 331 328
306 324 325 346 12 14 15 13 7 6 6 12 14 10 9 1 356 353 356 355 358 6 3 5 25 81 116 148 152 161 163 183 200 225 250 250 277 286 289 291 294 302 316 324 314 308 318 309 308
296 293 301 310 328 3 354 5 5 358 3 358 1 1 359 3 2 356 352 347 342 344 356 353 18 124 136 180 183 192 205 225 229 258 263 265 281 290 292 304 311 307 303 304 309 295 299 307 313
300 293 300 309 303 310 341 335 355 351 350 353 359 353 350 352 352 349 351 347 329 326 331 335 328 288 206 217 235 235 236 241 233 264 276 287 297 305 300 293 301 306 311 303 304 306 299 303 307
293 285 290 293 306 301 317 323 321 333 326 329 340 338 337 339 344 338 341 339 339 327 313 315 315 306 278 256 254 249 256 254 261 275 294 297 295 302 303 300 299 289 306 299 299 304 301 306 304
288 291 282 285 290 300 308 315 309 318 315 320 317 326 327 325 326 328 329 331 327 330 324 306 297 291 284 276 267 271 271 276 278 282 283 289 293 296 300 300 300 296 299 300 301 301 301 303 302
274 278 272 280 286 292 301 309 308 311 312 308 310 313 314 316 312 316 328 332 318 322 319 323 310 296 288 282 273 272 274 276 277 281 283 286 288 291 296 299 301 301 299 297 297 296 297 299 303
285 280 276 275 284 297 301 303 306 309 308 304 309 308 305 307 312 308 314 324 320 317 316 322 320 317 304 291 289 284 277 276 278 279 281 284 287 291 294 298 299 299 298 297 295 299 302 301 302
284 289 291 291 291 290 297 297 298 302 306 304 301 303 308 304 305 307 309 312 321 311 322 324 330 328 320 307 292 288 285 283 284 283 283 285 288 289 291 293 297 298 298 299 300 302 304 305 303
281 282 287 294 293 293 291 291 290 297 302 300 299 301 306 302 304 304 304 303 306 306 311 323 323 320 316 311 301 296 289 285 283 283 284 286 287 290 294 296 297 301 302 301 300 302 303 304 303
281 282 286 289 292 292 289 288 289 294 298 297 296 300 304 297 301 301 298 300 295 300 307 310 319 313 313 310 306 305 302 291 288 291 291 292 293 297 297 299 302 301 300 299 301 302 304 305 306
279 281 283 284 286 289 287 286 287 291 296 296 294 300 301 295 301 297 295 291 288 293 297 302 306 304 304 303 306 307 304 302 299 301 298 299 299 300 303 304 303 303 303 304 304 305 305 305 305
279 282 281 281 281 282 284 287 288 291 296 295 295 295 295 295 296 297 293 287 287 288 289 295 300 300 300 299 299 297 296 297 297 297 299 300 304 306 305 306 305 305 306 307 308 308 308 309 309
279 279 282 278 277 275 282 284 288 290 292 292 293 292 292 292 292 289 285 284 286 292 289 294 299 299 297 293 294 296 293 293 294 299 301 303 306 305 305 304 304 305 307 309 309 310 311 309 309
278 279 281 276 277 276 277 280 286 291 289 291 289 288 290 289 289 283 282 284 287 291 289 293 296 296 293 292 293 299 292 297 301 300 303 304 301 302 305 307 306 306 309 309 311 310 309 310 310
277 275 274 276 277 275 279 281 281 283 284 286 285 288 285 288 287 286 286 287 288 289 287 290 293 293 292 291 297 300 298 302 305 302 301 302 301 305 307 307 309 310 309 311 308 308 312 312 311
272 271 272 272 274 278 281 281 275 277 280 280 283 284 285 293 291 288 284 285 288 286 287 290 286 293 293 295 296 297 298 302 306 305 303 303 304 305 308 309 309 309 309 308 309 312 312 312 311
270 271 271 274 276 275 274 274 275 277 278 279 280 281 286 288 289 287 282 280 282 286 287 286 288 292 295 295 294 294 298 303 302 302 303 306 306 310 310 308 308 308 309 310 311 311 311 312 313
267 270 272 273 274 271 274 272 278 279 278 279 278 280 281 285 287 285 284 283 286 284 284 281 287 291 293 296 296 298 298 300 302 304 307 307 306 306 310 307 308 309 311 312 314 313 314 315 315
264 267 270 270 271 271 272 277 277 276 276 277 273 273 275 282 285 284 283 283 284 279 279 278 283 289 292 297 298 297 299 299 301 306 309 306 307 308 307 308 312 313 313 315 316 316 317 317 315
260 262 264 268 270 272 275 273 267 274 278 276 274 272 274 275 282 284 284 284 281 283 282 283 286 290 297 298 295 295 298 299 305 307 306 307 307 308 309 313 313 314 318 318 319 321 320 319 321
260 260 261 263 268 267 268 267 272 275 276 276 273 271 277 278 279 281 283 283 284 285 285 288 292 294 296 295 292 297 300 302 303 303 304 306 308 309 313 313 314 317 319 320 320 319 321 323 324
258 260 260 262 266 269 269 268 271 273 271 270 270 274 278 277 276 278 282 284 284 282 286 292 294 296 294 294 297 300 301 300 301 302 306 308 310 312 313 314 315 320 321 319 319 325 327 327 332
257 259 262 264 268 269 269 269 268 265 267 268 271 272 271 271 272 278 283 281 280 283 288 291 293 293 294 296 297 298 297 299 303 306 308 310 311 311 312 314 317 320 319 320 327 330 333 333 334
253 258 259 261 265 268 268 268 266 266 265 265 266 268 268 269 273 278 280 281 278 282 284 286 285 291 294 295 294 295 299 302 304 306 308 308 310 310 311 315 318 320 320 327 332 335 336 337 337
250 254 256 258 260 262 260 261 265 265 262 262 263 264 265 268 273 274 276 277 279 282 283 282 287 289 292 293 294 298 300 303 305 307 306 309 309 312 316 318 320 323 327 333 337 339 339 339 339
Height
10860 10856 10853 10850 10846 10844 10841 10836 10832 10831 10831 10829 10826 10822 10819 10817 10816 10814 10812 10810 10808 10807 10806 10805 10804 10805 10804 10804 10803 10802 10801 10799 10797 10795 10794 10793 10793 10792 10791 10790 10789 10787 10785 10784 10783 10782 10782 10782 10782
10862 10859 10855 10853 10849 10843 10839 10837 10835 10833 10831 10830 10829 10826 10823 10820 10817 10813 10809 10807 10805 10804 10803 10803 10803 10802 10802 10801 10800 10798 10797 10795 10794 10793 10792 10793 10792 10792 10791 10791 10790 10788 10787 10785 10784 10782 10781 10781 10780
10863 10860 10857 10854 10851 10848 10842 10839 10835 10833 10832 10831 10830 10828 10825 10822 10818 10813 10809 10806 10804 10802 10801 10801 10800 10799 10798 10798 10797 10795 10794 10793 10792 10791 10791 10791 10791 10791 10791 10790 10789 10788 10786 10784 10783 10781 10780 10779 10778
10862 10860 10858 10855 10851 10848 10845 10842 10839 10837 10834 10832 10830 10828 10826 10824 10820 10816 10813 10810 10806 10802 10799 10797 10796 10796 10795 10795 10794 10793 10792 10792 10791 10791 10790 10790 10790 10789 10789 10789 10788 10787 10786 10784 10782 10780 10778 10776 10775
10862 10859 10857 10855 10851 10850 10847 10844 10841 10840 10839 10836 10833 10831 10828 10825 10822 10819 10816 10812 10808 10803 10799 10797 10795 10793 10793 10792 10791 10790 10790 10791 10791 10791 10790 10789 10788 10788 10788 10788 10787 10785 10783 10782 10781 10778 10776 10774 10772
10860 10859 10856 10855 10851 10850 10847 10845 10843 10841 10840 10837 10835 10832 10829 10827 10823 10820 10817 10814 10810 10806 10802 10798 10795 10792 10792 10792 10790 10789 10789 10790 10790 10790 10789 10788 10788 10787 10785 10785 10783 10782 10780 10779 10777 10775 10773 10771 10769
10859 10857 10855 10853 10851 10848 10848 10844 10842 10841 10840 10838 10834 10832 10829 10827 10824 10821 10819 10815 10812 10808 10805 10801 10797 10793 10792 10792 10791 10790 10788 10788 10787 10787 10786 10786 10785 10783 10783 10782 10781 10780 10778 10775 10772 10771 10769 10766 10763
10856 10855 10853 10851 10850 10849 10848 10845 10843 10840 10838 10839 10837 10833 10829 10826 10823 10820 10818 10815 10812 10809 10805 10803 10800 10797 10794 10791 10791 10789 10788 10788 10786 10785 10784 10783 10782 10782 10780 10778 10777 10776 10773 10771 10768 10766 10763 10760 10757
10854 10853 10851 10850 10847 10846 10846 10845 10841 10840 10837 10835 10835 10833 10830 10826 10822 10818 10815 10813 10810 10808 10805 10802 10800 10799 10796 10792 10791 10788 10787 10786 10785 10783 10782 10780 10779 10777 10775 10774 10773 10771 10768 10766 10763 10760 10756 10753 10749
10851 10851 10847 10847 10845 10842 10842 10843 10840 10837 10834 10833 10830 10830 10828 10826 10821 10817 10813 10809 10807 10805 10802 10800 10797 10796 10794 10792 10790 10789 10787 10785 10783 10781 10779 10776 10775 10773 10770 10768 10767 10765 10762 10759 10756 10752 10748 10745 10741
10848 10849 10847 10845 10843 10839 10838 10838 10836 10834 10830 10827 10825 10824 10823 10822 10819 10815 10811 10807 10803 10801 10798 10796 10794 10792 10790 10788 10785 10784 10782 10780 10778 10776 10774 10772 10769 10767 10764 10762 10760 10758 10755 10751 10748 10745 10741 10737 10733
10844 10845 10844 10843 10840 10837 10834 10831 10830 10829 10826 10824 10821 10819 10817 10817 10814 10810 10808 10804 10801 10796 10795 10792 10789 10788 10786 10783 10782 10780 10776 10774 10772 10771 10768 10766 10763 10761 10759 10756 10753 10749 10746 10743 10739 10735 10732 10728 10724
10838 10838 10837 10836 10836 10833 10830 10828 10825 10823 10820 10818 10816 10814 10812 10811 10810 10807 10803 10800 10798 10795 10791 10789 10786 10783 10781 10778 10776 10774 10772 10768 10766 10764 10761 10758 10756 10754 10751 10748 10744 10741 10736 10733 10730 10725 10721 10717 10713
10831 10832 10831 10828 10828 10825 10824 10823 10819 10818 10813 10810 10809 10806 10806 10805 10804 10802 10799 10796 10794 10792 10789 10785 10782 10780 10777 10773 10769 10766 10764 10761 10759 10757 10754 10751 10748 10745 10742 10739 10734 10730 10726 10722 10719 10715 10712 10708 10703
10822 10824 10825 10820 10819 10816 10813 10814 10810 10811 10809 10803 10801 10799 10799 10798 10799 10798 10794 10790 10788 10786 10784 10781 10778 10775 10771 10768 10763 10760 10758 10755 10752 10750 10747 10744 10740 10737 10733 10729 10724 10719 10713 10709 10706 10703 10700 10695 10690
10814 10816 10816 10813 10810 10808 10803 10804 10804 10802 10803 10797 10793 10791 10790 10790 10792 10791 10788 10784 10782 10780 10777 10774 10772 10769 10765 10762 10758 10754 10751 10748 10744 10742 10739 10735 10731 10728 10724 10719 10714 10708 10702 10698 10693 10690 10687 10684 10677
10804 10804 10805 10804 10801 10799 10795 10792 10794 10794 10791 10788 10785 10782 10783 10783 10784 10784 10781 10777 10774 10773 10770 10767 10765 10762 10758 10755 10750 10746 10743 10741 10738 10734 10731 10728 10723 10719 10715 10710 10705 10699 10692 10686 10681 10675 10668 10663 10659
10793 10790 10793 10792 10792 10792 10787 10784 10784 10784 10783 10779 10777 10774 10773 10773 10775 10775 10773 10770 10767 10765 10763 10760 10758 10754 10750 10746 10743 10740 10736 10733 10731 10728 10723 10719 10715 10710 10706 10702 10696 10690 10683 10677 10670 10662 10653 10645 10640
10777 10779 10779 10776 10780 10783 10782 10776 10774 10775 10773 10773 10769 10766 10763 10763 10765 10765 10764 10762 10760 10757 10755 10753 10750 10746 10742 10738 10736 10733 10730 10726 10724 10722 10717 10711 10706 10702 10698 10693 10688 10681 10673 10666 10659 10650 10642 10634 10626
10764 10767 10766 10766 10768 10770 10772 10772 10767 10764 10764 10763 10760 10758 10754 10754 10757 10757 10757 10755 10753 10751 10748 10745 10743 10738 10734 10731 10728 10726 10724 10721 10716 10713 10709 10703 10698 10694 10689 10684 10677 10670 10663 10655 10647 10640 10632 10623 10612
10752 10753 10754 10756 10758 10758 10759 10759 10761 10754 10753 10752 10750 10749 10745 10746 10748 10750 10750 10748 10746 10743 10741 10738 10735 10732 10726 10723 10721 10720 10717 10714 10709 10705 10700 10695 10691 10685 10680 10673 10666 10659 10652 10644 10636 10628 10620 10611 10601
10739 10739 10744 10744 10746 10746 10749 10745 10749 10747 10744 10742 10740 10740 10739 10739 10739 10740 10740 10740 10739 10736 10734 10732 10729 10724 10719 10715 10713 10711 10709 10705 10701 10698 10692 10687 10681 10676 10669 10662 10656 10649 10641 10634 10626 10617 10606 10595 10585
10726 10728 10732 10734 10736 10738 10736 10741 10734 10736 10735 10735 10732 10731 10731 10731 10730 10729 10730 10730 10731 10730 10727 10724 10721 10717 10713 10710 10707 10704 10700 10696 10692 10687 10683 10677 10672 10665 10659 10652 10646 10638 10631 10624 10615 10604 10593 10581 10569
10716 10718 10719 10722 10725 10729 10722 10730 10728 10727 10726 10725 10725 10723 10722 10720 10719 10720 10720 10721 10721 10720 10719 10717 10714 10709 10706 10703 10700 10696 10691 10687 10683 10678 10673 10667 10661 10655 10648 10640 10634 10627 10620 10612 10602 10591 10579 10566 10553
10705 10707 10709 10713 10714 10717 10717 10722 10721 10717 10718 10717 10717 10717 10716 10714 10711 10711 10712 10712 10711 10710 10709 10707 10706 10702 10698 10695 10692 10688 10684 10679 10674 10669 10663 10657 10651 10644 10636 10630 10623 10616 10609 10598 10587 10575 10562 10548 10532
10694 10694 10698 10703 10704 10705 10708 10713 10711 10709 10709 10709 10709 10709 10708 10707 10705 10704 10704 10703 10701 10701 10699 10698 10697 10694 10690 10687 10684 10680 10676 10670 10666 10660 10654 10648 10641 10634 10627 10620 10613 10607 10597 10585 10575 10562 10548 10533 10519
10681 10683 10688 10691 10693 10696 10699 10701 10701 10700 10701 10701 10699 10699 10699 10699 10698 10697 10696 10694 10692 10691 10691 10690 10687 10685 10682 10679 10675 10671 10667 10662 10657 10651 10646 10639 10632 10625 10618 10612 10604 10596 10587 10577 10565 10549 10534 10518 10502
10669 10673 10678 10680 10684 10684 10687 10691 10693 10692 10693 10691 10690 10690 10691 10690 10690 10690 10689 10687 10686 10683 10683 10681 10679 10677 10674 10671 10668 10663 10658 10653 10648 10643 10637 10630 10624 10617 10611 10603 10595 10586 10576 10565 10550 10534 10518 10500 10485
10659 10663 10666 10669 10673 10675 10677 10679 10681 10684 10682 10682 10682 10683 10683 10684 10683 10682 10681 10679 10677 10676 10675 10674 10672 10669 10666 10663 10659 10655 10650 10645 10640 10635 10628 10622 10616 10608 10601 10593 10584 10575 10564 10550 10534 10518 10501 10483 10467
10648 10652 10655 10659 10663 10667 10668 10667 10674 10674 10674 10675 10676 10676 10676 10677 10676 10676 10674 10672 10670 10669 10667 10666 10664 10661 10658 10654 10650 10646 10641 10637 10631 10625 10619 10613 10606 10598 10590 10581 10572 10562 10549 10534 10519 10501 10483 10466 10447